Location: Newark
(37.9128°N, 122.4756°W)
Time: 12:28:16
(UTC+00:00)

X-37B - Pass Details

Date: 13 March 2021
Orbit: 380 x 394 km, 45.0° (Epoch: 07 April)

Event Time Altitude Azimuth Distance (km) Brightness Sun altitude
Rises 03:30:34 0° 251° (WSW) 2,262 5.6 -15.7°
Reaches altitude 10° 03:32:39 10° 256° (WSW) 1,412 4.5 -16.2°
Maximum altitude 03:35:47 57° 336° (NNW) 461 1.0 -16.8°
Enters shadow 03:36:57 33° 40° (NE) 677 1.5 -17.0°
